Find Tianhui-5 2-01

NORAD ID: 60211 Int'l Des: 2024-126 Owner: GCDX Country: CN operational
LEOCIRCULARRETROGRADESSO

Live Position

Loading 3D Globe...

About Tianhui-5 2-01

Description loading...

Upcoming Passes

Passes for default location (London). Set your location on the main map for personalized predictions.

Altitude History

Loading altitude history...

Two-Line Element Set

1 60211U 24126A 26103.52547318 .00000266 00000-0 35281-4 0 9999
2 60211 97.8205 111.9976 0001541 89.5053 270.6340 14.87581538 96274
Epoch: Apr 13, 2026 • Age: 24 hours

Current Status

Altitude 607.5 km
Velocity 7.56 km/s
Sub-Earth Point 10.08°N, 75.81°E
Launch Date Jul 4, 2024
Age 1.7 years
Type other

Technical Details

Classification Payload
Mass 1000.00 kg
Dry Mass 1000.00 kg
Total Mass 1000.00 kg
Length 2.00 m
Diameter 2.00 m
Span 14.00 m
Shape Box + 2 Pan
Manufacturer DFHZ
Bus Type CAST-2000
Phase Status In Orbit
Owner/State GCDX/CN

Most Searched